This is the latest recevied weather packets stored in our database for station/object OK1KZE-6. If no packets are shown the sender has not sent any weather packets the latest 10 day(s).
| Time | Temp. | Humidity | Pressure | Rain* | Wind** | Luminosity | Snow |
|---|---|---|---|---|---|---|---|
| 1777636208 | 17.22° C | 37% | 1030 hPa | - | - | - | - |
| 1777635908 | 16.67° C | 36% | 1030 hPa | - | - | - | - |
| 1777635608 | 16.67° C | 36% | 1030 hPa | - | - | - | - |
| 1777635308 | 16.67° C | 36% | 1030.1 hPa | - | - | - | - |
| 1777635008 | 17.22° C | 36% | 1030.1 hPa | - | - | - | - |
| 1777634708 | 16.11° C | 38% | 1030.2 hPa | - | - | - | - |
| 1777634407 | 17.22° C | 39% | 1030.2 hPa | - | - | - | - |
| 1777634108 | 16.11° C | 41% | 1030.2 hPa | - | - | - | - |
| 1777633807 | 16.11° C | 40% | 1030.3 hPa | - | - | - | - |
| 1777633209 | 16.11° C | 39% | 1030.5 hPa | - | - | - | - |
| 1777632908 | 16.11° C | 39% | 1030.6 hPa | - | - | - | - |
| 1777632608 | 16.11° C | 39% | 1030.7 hPa | - | - | - | - |
| 1777632308 | 15.56° C | 41% | 1030.6 hPa | - | - | - | - |
| 1777632008 | 15.56° C | 41% | 1030.5 hPa | - | - | - | - |
| 1777631708 | 15.56° C | 42% | 1030.7 hPa | - | - | - | - |
| 1777631408 | 15.56° C | 41% | 1030.8 hPa | - | - | - | - |
| 1777631108 | 15° C | 43% | 1030.6 hPa | - | - | - | - |
| 1777630808 | 15° C | 44% | 1030.6 hPa | - | - | - | - |
| 1777630508 | 15° C | 44% | 1030.8 hPa | - | - | - | - |
| 1777629909 | 15° C | 43% | 1030.8 hPa | - | - | - | - |
| 1777629608 | 15° C | 44% | 1030.9 hPa | - | - | - | - |
| 1777629308 | 14.44° C | 45% | 1031 hPa | - | - | - | - |
| 1777629008 | 14.44° C | 45% | 1030.9 hPa | - | - | - | - |
| 1777628409 | 14.44° C | 46% | 1031 hPa | - | - | - | - |
| 1777628107 | 13.89° C | 47% | 1030.7 hPa | - | - | - | - |
* Rain since midnight (hover to see other rain measurements)
** Current wind speed in m/s (hover to see current wind gust speed)